GLOBALSTAR M058 [-]

Last updated on July 6, 2021, 3:36 p.m. UTC

1 25907U 99049A   21187.16053684 -.00000041  00000-0  58155-3 0  9999
2 25907  51.9963 359.5251 0001747  22.9560 337.1352 11.93142049980613
UTC
Height (km)
Latitude
Longitude
Inclination
Orbital Period
UTC large
Height (km)
Speed (km/s)
/
Latitude / Longitude
Inclination (degrees)
Orbital Period (minutes)
Azimuth
Elevation
Range (km)
Doppler Factor
iOS Compass Heading
iOS Angle